Retour au catalogue

HAIYANG 1B

ActifScienceSSO
NORAD 31113·PAYLOAD·🇨🇳 China

Lancé Apr 11, 2007 depuis Taiyuan Satellite Launch Center

Loading…

Prochains Passages (prochaines 24 heures)

TLE

FraisSource: Space-Track

Époque: Sep 14, 2026, 08:41 UTC

1 31113U 07010A   26257.36223448  .00000045  00000-0  33131-4 0  9995
2 31113  98.3606 235.7922 0012446 300.5259  59.4696 14.31045499 13399

Suivez HAIYANG 1B en temps réel avec AllMySat

Download on the App Store